Regional Weather Roundup
Issued by NWS San Diego, CA

Home | Current Version | Previous Version | Text Only | Print | Product List | Glossary On
Versions: 1 2 3 4 5 6 7 8 9 10 11 12 13 14 15 16 17 18 19 20 21 22 23 24 25 26 27 28
000
ASUS46 KSGX 250111
RWRSGX

SAN DIEGO HOURLY WEATHER ROUNDUP
NATIONAL WEATHER SERVICE SAN DIEGO CA
600 PM PDT SAT SEP 24 2016

NOTE: "FAIR" INDICATES FEW OR NO CLOUDS BELOW 12,000 FEET WITH NO
SIGNIFICANT WEATHER AND/OR OBSTRUCTIONS TO VISIBILITY.

CAZ042-043-060-061-PZZ750-775-250200-

GREATER SAN DIEGO AREA

CITY           SKY/WX    TMP DP  RH WIND       PRES   REMARKS
LINDBERGH FLD  PTCLDY    82  46  28 NW7       29.95R
POINT LOMA       N/A     75  55  49 NW14        N/A
NATIONAL CITY    N/A     80  51  36 CALM      29.95R
CHULA VISTA      N/A     79  57  46 W5        29.87R
IMPERIAL BEACH CLEAR     74  58  57 SW9       29.95S
BROWN FIELD    CLEAR     78  46  32 W9        29.96R
MIRAMAR MCAS   CLEAR     82  42  24 NW10      29.95S
MONTGOMERY FLD CLEAR     80  42  25 NW10      29.95S

$$

NORTH SAN DIEGO COUNTY

CITY           SKY/WX    TMP DP  RH WIND       PRES   REMARKS
CAMP PENDLETON   N/A     81  40  23 SW7       29.91F
OCEANSIDE AP   CLEAR     78  48  34 W6        29.92S
OCEANSIDE HBR    N/A     72  63  73 NW12      29.96S
VISTA            N/A     82  43  25 SW3       29.92S
CARLSBAD       CLEAR     76  51  41 VRB3      29.94S
DEL MAR          N/A     75  58  55 CALM      29.97S
LA JOLLA SCRIP   N/A     75  58  55 NW3       29.94S
FALLBROOK        N/A     85  40  20 S2        29.92S
ESCONDIDO        N/A     82  45  26 W3        29.97S
SAN MARCOS       N/A     81  46  28 W7        29.98S
POWAY            N/A     85  42  21 CALM      29.95S

$$

EAST SAN DIEGO COUNTY

CITY           SKY/WX    TMP DP  RH WIND       PRES   REMARKS
RAMONA         CLEAR     81  33  17 W13       29.99R
SANTEE LAKES     N/A     84  42  22 CALM      29.93R
LA MESA          N/A     82  39  21 CALM      29.88R
JAMUL            N/A     83  42  23 CALM      29.95S
DESCANSO N       N/A     77  38  24 CALM      29.91S
MT. LAGUNA OBS   N/A     62  25  24 NE6       29.78R
CAMPO            N/A     82  35  18 VRB5      30.01R

$$

ORANGE COUNTY AND THE LOS ANGELES BASIN

CITY           SKY/WX    TMP DP  RH WIND       PRES   REMARKS
JOHN WAYNE AP  PTCLDY    81  47  30 SW6       29.94S
LAGUNA BEACH     N/A     83  48  29 NW3       29.89S
LAKE FOREST FR   N/A     83  46  26 W3        29.83S
HUNTINGTON BCH   N/A     77  57  49 W5        29.95S
LOS ALAMITOS   FAIR      85  40  20 NW7       29.93S
FULLERTON      PTCLDY    85  37  18 VRB6      29.93R
LONG BEACH     CLEAR     83  33  16 W10       29.94R
L.A. AP        PTCLDY    75  53  46 W10       29.95S
L.A. DOWNTOWN  CLEAR     80  41  24 VRB3      29.94S

$$

THE INLAND EMPIRE

CITY           SKY/WX    TMP DP  RH WIND       PRES   REMARKS
CORONA         CLEAR     86  49  27 MISG      29.94R
CHINO          PTCLDY    89  45  21 W13       29.96R
ONTARIO        PTCLDY    89  31  12 W13       29.95R
SAN BERNARDINO CLEAR     95  28   9 N16       29.93S
RIVERSIDE AP   CLEAR     89  43  20 W10       29.94R
MORENO VALLEY    N/A     88  47  23 W8        28.07S
MARCH ARB      CLEAR     87  38  17 W17       29.97R
HORSETHIEF CYN   N/A     89  30  12 NE3       29.96S
PERRIS           N/A     88  37  16 W9        29.96S
HEMET EAST       N/A     88  36  15 SW7       30.01R
FRENCH VALLEY  FAIR      88  32  13 S10       29.97R
TEMECULA         N/A     89  37  15 S6        30.00R

$$

SAN BERNARDINO AND RIVERSIDE COUNTY MOUNTAINS

CITY           SKY/WX    TMP DP  RH WIND       PRES   REMARKS
BIG BEAR AP    CLEAR     63  21  20 N7        30.33R
PINE COVE        N/A     68  34  28 CALM      30.02S

$$

SOUTHERN DESERT INCLUDING THE COACHELLA VALLEY

CITY           SKY/WX    TMP DP  RH WIND       PRES   REMARKS
PALM SPRINGS   CLEAR     93  35  13 SW5       29.93S
PALM DESERT      N/A     96  36  12 NE2       27.55S
THERMAL        CLEAR     97  28   8 N8        29.86S
BLYTHE         CLEAR     93  30  10 N14       29.90F
IMPERIAL AP    CLEAR     95  34  11 N7        29.88S
EL CENTRO NAS  CLEAR     93  28  10 N6        29.90S
YUMA AZ        CLEAR     92  30  11 N12       29.88F
MEXICALI       CLEAR     93  27   9 NW12      29.89F

$$

UPPER DESERT

CITY           SKY/WX    TMP DP  RH WIND       PRES   REMARKS
VICTORVILLE AP CLEAR     82  27  13 NE9       30.10F
HESPERIA         N/A     81  31  16 NE1       30.14S
PALMDALE       CLEAR     85  28  12 NE12      30.08S
LANCASTER      CLEAR     86  29  12 NE9       30.08S
EDWARDS AFB    MOCLDY    85  27  12 N2        30.05S
DAGGETT        CLEAR     87  27  11 NE7       30.05S
29 PALMS N     CLEAR     84  25  11 N13       30.10F
NEEDLES        CLEAR     90  30  11 N18       29.97R

$$

REGIONAL REPORTS

CITY           SKY/WX    TMP DP  RH WIND       PRES   REMARKS
SANTA BARBARA  CLEAR     72  58  61 W5        29.95S
SANDBERG       CLEAR     78  27  15 E10       30.21S
LAS VEGAS NV   PTCLDY    84  25  11 E7        30.05S
PHOENIX AZ     CLEAR     88  31  13 W13       29.89S
TIJUANA        CLEAR     77  45  31 CALM      29.98R
ENSENADA NW      N/A     72  32  22 S3        29.93R

$$

OFFSHORE ISLANDS

CITY           SKY/WX    TMP DP  RH WIND       PRES   REMARKS
CATALINA ARPT  CLEAR     78  29  16 W14       30.02S
SAN NICOLAS IS CLEAR     85  41  21 NW8       29.98R

$$

MARINE AND OFFSHORE BUOY REPORTS

STATION/POSITION SKY/WX   TEMP    WIND        PRES    SWELL
                          AIR SEA DIR/SP/G            HT/PER/DIR
                          (F)     (DEG/KT/KT) (MB)    (FT/S/D)
TANNER BANKS               67 67  290/  8/ 10 1014.0F   7/210/16
S CLEMENTE BASIN           71 69  300/ 10/ 12 1013.6R   5/200/16
SO. S. ROSA ISLA           63 62  310/ 16/ 17 1014.7F   5/170/16
W. S. BARBARA CH           61 60  310/ 16/ 19 1014.5F   5/200/16
M. S. BARBARA CH                  240/  8/ 10 1014.5F
S. MONICA BASIN            70 69  290/  8/ 10 1014.0F
TORREY PINES OTR              71                N/A     3/200/17
POINT LOMA SOUTH              67                N/A     3/190/17

$$





USA.gov is the U.S. government's official web portal to all federal, state and local government web resources and services.